Location: Mohawk View
(42.7837°N, 73.7885°W)
Time: 13:10:28
(UTC+00:00)

Lacrosse 5 rocket - Pass Details

Date: 17 June 2021
Orbit: 459 x 634 km, 57.0° (Epoch: 26 July)

Event Time Altitude Azimuth Distance (km) Brightness Sun altitude
Rises 04:52:18 0° 284° (WNW) 2,500 4.9 -23.8°
Reaches altitude 10° 04:55:32 10° 315° (NW) 1,612 4.3 -23.8°
Maximum altitude 04:57:08 12° 342° (NNW) 1,464 4.4 -23.8°
Drops below altitude 10° 04:58:44 10° 8° (N) 1,610 4.8 -23.8°
Sets 05:01:58 0° 40° (NE) 2,492 5.5 -23.8°
